Regional Weather Roundup
Issued by NWS Jackson, KY

Home | Current Version | Previous Version | Text Only | Print | Product List | Glossary Off
Versions: 1 2 3 4 5 6 7 8 9 10 11 12 13 14 15 16 17 18 19 20 21 22 23 24 25 26 27

000
ASUS43 KJKL 181510
RWRJKL

EAST KENTUCKY HOURLY WEATHER ROUNDUP
NATIONAL WEATHER SERVICE JACKSON KY
1100 AM EDT FRI AUG 18 2017

NOTE: "FAIR" INDICATES FEW OR NO CLOUDS BELOW 12,000 FEET WITH
NO SIGNIFICANT WEATHER AND/OR OBSTRUCTIONS TO VISIBILITY.

* THESE REPORTS ARE NOT UNDER NWS QUALITY CONTROL AND MAY NOT
  REPORT WEATHER SUCH AS PRECIPITATION AND FOG.

KYZ079-080-083-085-087-088-110-112-115-119-120-181600
...EASTERN KENTUCKY...

CITY           SKY/WX    TMP DP  RH WIND       PRES   REMARKS
JACKSON        CLOUDY    75  73  93 CALM      29.97R
LONDON         CLOUDY    75  71  87 W8        29.99R
SOMERSET*      PTSUNNY   77  73  88 W7        29.98S
MONTICELLO*    PTSUNNY   81  74  79 W15       30.00S
WILLIAMSBURG*    N/A     73  73 100 NW5       29.99R
MIDDLESBORO*   PTSUNNY   79  73  81 CALM      29.99S
HARLAN APT*    PTSUNNY   77  70  78 S3        30.00S
PIKE CO APT*   CLOUDY    72  72 100 SW5       29.98R
BIG SANDY APT* CLOUDY    76  74  96 SW5       29.96S
MOREHEAD APT*  PTSUNNY   77  72  83 W5        29.96R
$$

KYZ035-036-041-042-044-050-067-078-099-181600
...CENTRAL KENTUCKY...

CITY           SKY/WX    TMP DP  RH WIND       PRES   REMARKS
MT STERLING*   PTSUNNY   79  72  78 W9        29.97R
FLEMING/MASON* PTSUNNY   79  71  75 W8        29.94R
DANVILLE*      CLOUDY    79  68  69 W7        29.98R
LEXINGTON      PTSUNNY   80  69  69 W8        29.95R
FRANKFORT      MOSUNNY   80  68  66 NW7       29.94R
LOUISVILLE     MOSUNNY   81  69  67 W10       29.94
LEBANON*         N/A     79  68  69 W10       29.97R
GLASGOW*       PTSUNNY   80  69  68 W5        29.98S
BOWLING GREEN  SUNNY     82  70  66 W9        29.98R
$$

KYZ091>093-OHZ055-061-077-WVZ005-015-034-035-042-181600
...SOUTHERN OHIO/WEST VIRGINIA...

CITY           SKY/WX    TMP DP  RH WIND       PRES   REMARKS
COVINGTON      MOSUNNY   79  71  76 W8        29.92R
COLUMBUS       MOSUNNY   80  68  66 W14       29.87R
DAYTON         MOSUNNY   76  65  68 W9        29.91
WILMINGTON     SUNNY     78  67  68 W10       29.90R
HUNTINGTON     PTSUNNY   77  72  84 W5        29.91S
CHARLESTON     CLOUDY    76  72  87 SW8       29.92S
PINEVILLE*     RAIN      75  72  91 MISG      30.02F
BECKLEY        LGT RAIN  72  69  90 S7        30.01S
BLUEFIELD      PTSUNNY   74  67  78 SW10      30.04S
LOGAN CO APT*  CLOUDY    75  73  94 SW6       29.97R
$$

VAZ002-007-008-TNZ017-027-036-066-071-181600
...SOUTHWEST VIRGINIA/EAST TENNESSEE...

CITY           SKY/WX    TMP DP  RH WIND       PRES   REMARKS
WISE*          LGT RAIN  72  72 100 SW8       30.06R
JONESVILLE*      N/A     77  73  88 SW5       30.01S
ABINGDON*      CLOUDY    78  73  85 W9        30.03S
BRISTOL        CLOUDY    80  72  76 W9        30.00S
MORRISTOWN*    CLOUDY    77  73  88 VRB7      29.99R FOG
SEVIERVILLE*   CLOUDY    79  72  78 W13       29.99R
KNOXVILLE      CLOUDY    75  72  90 SW8       29.99R
LAFOLLETTE*    PTSUNNY   81  73  78 VRB3      30.02R
OAK RIDGE      CLOUDY    79  72  79 VRB5      30.00R
CROSSVILLE     PTSUNNY   74  69  85 W12       30.05S
NASHVILLE      PTSUNNY   83  67  58 W6        30.01R
$$

...KEY TO REMARKS...
VSB - VISIBILITY IN MILES
WCI - WIND CHILL INDEX
HX  - HEAT INDEX

$$




USA.gov is the U.S. government's official web portal to all federal, state and local government web resources and services.